Weather History for K19A - April, 2013

Change the Weather History Date:

Tuesday, April 23, 2013

  Actual Average (KGVL) Record (KGVL)
Temperature  
Mean Temperature 56 °F 62 °F  
Max Temperature 71 °F 73 °F 91 °F (1965)
Min Temperature 41 °F 52 °F 32 °F (1986)
Degree Days  
Heating Degree Days 9 4  
Month to date heating degree days 150  
Since 1 July heating degree days 3002  
Cooling Degree Days 0 1  
Month to date cooling degree days 21  
Year to date cooling degree days 26  
Growing Degree Days 6 (Base 50)    
Moisture  
Dew Point 33 °F    
Average Humidity 45    
Maximum Humidity 70    
Minimum Humidity 20    
Precipitation  
Precipitation 0.00 in 0.13 in 1.13 in (1945)
Month to date precipitation 2.70  
Year to date precipitation 18.02  
Sea Level Pressure  
Sea Level Pressure 30.18 in    
Wind  
Wind Speed 1 mph (ESE)    
Max Wind Speed 6 mph    
Max Gust Speed -    
Visibility 10 miles    
Events      
T = Trace of Precipitation, MM = Missing Value Source: NWS Daily Summary

Daily Weather History Graph

Daily Weather History Graph

Search for Another Location

Airport or City:

Trip Planner

Search our weather history database for the weather conditions in past years. The results will help you decide how hot, cold, wet, or windy it might be!

Date:

Astronomy

Apr. 23, 2013 Rise Set
Actual Time 6:53 AM EDT 8:12 PM EDT
Civil Twilight 6:27 AM EDT 8:38 PM EDT
Nautical Twilight 5:55 AM EDT 9:09 PM EDT
Astronomical Twilight 5:23 AM EDT 9:42 PM EDT
Moon 6:10 PM EDT (4/23) 5:14 AM EDT (4/23)
Length of Visible Light 14h 11m
Length of Day
13h 19m
Waxing Gibbous, 94% of the Moon is Illuminated
Apr 23
Waxing Gibbous
Apr 25
Full
May 2
Last Quarter
May 9
New
May 18
First Quarter

Hourly Weather History & Observations

Time (EDT) Temp. Windchill Dew Point Humidity Pressure Visibility Wind Dir Wind Speed Gust Speed Precip Events Conditions
12:15 AM 48.2 °F - 32.0 °F 54% 30.23 in 10.0 mi ENE 3.5 mph - N/A   Clear
12:35 AM 50.0 °F - 32.0 °F 50% 30.23 in 10.0 mi Calm Calm - N/A   Clear
12:55 AM 48.2 °F - 32.0 °F 54% 30.24 in 10.0 mi Calm Calm - N/A   Clear
1:15 AM 46.4 °F - 32.0 °F 57% 30.23 in 10.0 mi Calm Calm - N/A   Clear
1:35 AM 46.4 °F - 32.0 °F 57% 30.23 in 10.0 mi Calm Calm - N/A   Clear
1:55 AM 46.4 °F - 32.0 °F 57% 30.23 in 10.0 mi Calm Calm - N/A   Clear
2:15 AM 44.6 °F - 32.0 °F 61% 30.23 in 10.0 mi Calm Calm - N/A   Clear
2:35 AM 44.6 °F - 32.0 °F 61% 30.22 in 10.0 mi Calm Calm - N/A   Clear
2:55 AM 44.6 °F - 32.0 °F 61% 30.21 in 10.0 mi Calm Calm - N/A   Clear
3:15 AM 44.6 °F - 32.0 °F 61% 30.21 in 10.0 mi Calm Calm - N/A   Clear
3:35 AM 42.8 °F - 32.0 °F 66% 30.21 in 10.0 mi Calm Calm - N/A   Clear
3:55 AM 42.8 °F - 32.0 °F 66% 30.21 in 10.0 mi Calm Calm - N/A   Clear
4:15 AM 42.8 °F - 32.0 °F 66% 30.21 in 10.0 mi Calm Calm - N/A   Clear
4:35 AM 44.6 °F - 32.0 °F 61% 30.21 in 10.0 mi Calm Calm - N/A   Clear
4:55 AM 44.6 °F 43.1 °F 32.0 °F 61% 30.21 in 10.0 mi ENE 3.5 mph - N/A   Clear
5:15 AM 42.8 °F - 32.0 °F 66% 30.21 in 10.0 mi Calm Calm - N/A   Clear
5:35 AM 42.8 °F - 32.0 °F 66% 30.21 in 10.0 mi Calm Calm - N/A   Clear
5:55 AM 42.8 °F - 32.0 °F 66% 30.21 in 10.0 mi Calm Calm - N/A   Clear
6:15 AM 42.8 °F - 32.0 °F 66% 30.22 in 10.0 mi Calm Calm - N/A   Clear
6:35 AM 41.0 °F - 32.0 °F 70% 30.22 in 10.0 mi Calm Calm - N/A   Clear
6:55 AM 41.0 °F - 32.0 °F 70% 30.22 in 10.0 mi Calm Calm - N/A   Clear
7:15 AM 41.0 °F - 32.0 °F 70% 30.22 in 10.0 mi Calm Calm - N/A   Clear
7:35 AM 42.8 °F - 32.0 °F 66% 30.22 in 10.0 mi Calm Calm - N/A   Clear
7:55 AM 44.6 °F - 32.0 °F 61% 30.23 in 10.0 mi Calm Calm - N/A   Clear
8:15 AM 46.4 °F - 30.2 °F 53% 30.23 in 10.0 mi Calm Calm - N/A   Clear
8:35 AM 50.0 °F - 30.2 °F 47% 30.24 in 10.0 mi East 3.5 mph - N/A   Clear
8:55 AM 50.0 °F - 30.2 °F 47% 30.25 in 10.0 mi ENE 3.5 mph - N/A   Clear
9:15 AM 51.8 °F - 30.2 °F 44% 30.25 in 10.0 mi East 3.5 mph - N/A   Clear
9:35 AM 53.6 °F - 30.2 °F 41% 30.25 in 10.0 mi East 5.8 mph - N/A   Clear
9:55 AM 53.6 °F - 30.2 °F 41% 30.25 in 10.0 mi East 5.8 mph - N/A   Clear
10:15 AM 55.4 °F - 30.2 °F 38% 30.25 in 10.0 mi ESE 5.8 mph - N/A   Clear
10:35 AM 55.4 °F - 30.2 °F 38% 30.25 in 10.0 mi NE 4.6 mph - N/A   Clear
10:55 AM 59.0 °F - 32.0 °F 36% 30.24 in 10.0 mi ESE 4.6 mph - N/A   Clear
11:15 AM 59.0 °F - 32.0 °F 36% 30.25 in 10.0 mi NE 3.5 mph - N/A   Clear
11:35 AM 60.8 °F - 32.0 °F 34% 30.25 in 10.0 mi Calm Calm - N/A   Clear
11:55 AM 60.8 °F - 30.2 °F 31% 30.24 in 10.0 mi Calm Calm - N/A   Clear
12:15 PM 60.8 °F - 30.2 °F 31% 30.23 in 10.0 mi East 3.5 mph - N/A   Clear
12:35 PM 62.6 °F - 30.2 °F 30% 30.23 in 10.0 mi Calm Calm - N/A   Clear
12:55 PM 62.6 °F - 28.4 °F 27% 30.21 in 10.0 mi Calm Calm - N/A   Clear
1:15 PM 64.4 °F - 30.2 °F 28% 30.20 in 10.0 mi SE 4.6 mph - N/A   Clear
1:55 PM 66.2 °F - 30.2 °F 26% 30.18 in 10.0 mi SW 4.6 mph - N/A   Clear
2:15 PM 68.0 °F - 28.4 °F 23% 30.18 in 10.0 mi Calm Calm - N/A   Clear
2:35 PM 68.0 °F - 28.4 °F 23% 30.17 in 10.0 mi SSW 3.5 mph - N/A   Clear
2:55 PM 68.0 °F - 28.4 °F 23% 30.16 in 10.0 mi SSW 4.6 mph - N/A   Clear
3:15 PM 68.0 °F - 26.6 °F 21% 30.16 in 10.0 mi South 3.5 mph - N/A   Clear
3:35 PM 69.8 °F - 28.4 °F 21% 30.15 in 10.0 mi Calm Calm - N/A   Clear
3:55 PM 69.8 °F - 28.4 °F 21% 30.14 in 10.0 mi Calm Calm - N/A   Clear
4:15 PM 69.8 °F - 30.2 °F 23% 30.13 in 10.0 mi SW 5.8 mph - N/A   Clear
4:35 PM 69.8 °F - 30.2 °F 23% 30.13 in 10.0 mi South 4.6 mph - N/A   Clear
4:55 PM 71.6 °F - 30.2 °F 22% 30.12 in 10.0 mi Calm Calm - N/A   Clear
5:15 PM 69.8 °F - 28.4 °F 21% 30.12 in 10.0 mi Calm Calm - N/A   Clear
5:35 PM 71.6 °F - 28.4 °F 20% 30.12 in 10.0 mi Calm Calm - N/A   Clear
5:55 PM 71.6 °F - 28.4 °F 20% 30.11 in 10.0 mi SW 3.5 mph - N/A   Clear
6:15 PM 71.6 °F - 30.2 °F 22% 30.10 in 10.0 mi SE 5.8 mph - N/A   Clear
6:35 PM 71.6 °F - 28.4 °F 20% 30.10 in 10.0 mi SSE 4.6 mph - N/A   Clear
6:55 PM 69.8 °F - 30.2 °F 23% 30.11 in 10.0 mi Calm Calm - N/A   Clear
7:15 PM 69.8 °F - 32.0 °F 25% 30.10 in 10.0 mi Calm Calm - N/A   Clear
7:35 PM 68.0 °F - 35.6 °F 30% 30.09 in 10.0 mi ESE 3.5 mph - N/A   Clear
7:55 PM 64.4 °F - 37.4 °F 37% 30.10 in 10.0 mi Calm Calm - N/A   Clear
8:15 PM 62.6 °F - 37.4 °F 39% 30.10 in 10.0 mi Calm Calm - N/A   Clear
8:35 PM 60.8 °F - 39.2 °F 45% 30.11 in 10.0 mi Calm Calm - N/A   Clear
8:55 PM 60.8 °F - 39.2 °F 45% 30.11 in 10.0 mi Calm Calm - N/A   Clear
9:15 PM 59.0 °F - 41.0 °F 51% 30.12 in 10.0 mi Calm Calm - N/A   Clear
9:35 PM 59.0 °F - 41.0 °F 51% 30.13 in 10.0 mi Calm Calm - N/A   Clear
9:55 PM 57.2 °F - 41.0 °F 55% 30.13 in 10.0 mi Calm Calm - N/A   Clear
10:15 PM 57.2 °F - 41.0 °F 55% 30.13 in 10.0 mi Calm Calm - N/A   Clear
10:35 PM 57.2 °F - 41.0 °F 55% 30.13 in 10.0 mi Calm Calm - N/A   Clear
10:55 PM 55.4 °F - 41.0 °F 58% 30.13 in 10.0 mi Calm Calm - N/A   Clear
11:15 PM 55.4 °F - 41.0 °F 58% 30.13 in 10.0 mi ESE 3.5 mph - N/A   Clear
11:35 PM 55.4 °F - 41.0 °F 58% 30.13 in 10.0 mi Calm Calm - N/A   Clear
11:55 PM 55.4 °F - 41.0 °F 58% 30.13 in 10.0 mi Calm Calm - N/A   Clear